,

(GMT )
Wainfleet

Weather History for EGYW - February, 2014

Change the Weather History Date:

Thursday, February 20, 2014

  Actual Average Record
Temperature  
Mean Temperature 48 °F -  
Max Temperature 55 °F - - ()
Min Temperature 40 °F - - ()
Degree Days  
Heating Degree Days 16    
Moisture  
Dew Point 44 °F    
Average Humidity 84    
Maximum Humidity 96    
Minimum Humidity 57    
Precipitation  
Precipitation 0.00 in - - ()
Sea Level Pressure  
Sea Level Pressure 29.48 in    
Wind  
Wind Speed 16 mph ()    
Max Wind Speed 24 mph    
Max Gust Speed -    
Visibility 12.5 miles    
Events      
T = Trace of Precipitation, MM = Missing Value Source: Averaged Metar Reports

Daily Weather History Graph

Daily Weather History Graph

Search for Another Location

Airport or City:

Trip Planner

Search our weather history database for the weather conditions in past years. The results will help you decide how hot, cold, wet, or windy it might be!

Date:

Astronomy

Feb. 20, 2014 Rise Set
Actual Time 7:06 AM GMT 5:19 PM GMT
Civil Twilight 6:30 AM GMT 5:55 PM GMT
Nautical Twilight 5:50 AM GMT 6:35 PM GMT
Astronomical Twilight 5:10 AM GMT 7:15 PM GMT
Moon 11:50 PM GMT (2/20) 8:52 AM GMT (2/20)
Length of Visible Light 11h 24m
Length of Day
10h 13m
Waning Gibbous, 73% of the Moon is Illuminated
Feb 20
Waning Gibbous
Feb 22
Last Quarter
Mar 1
New
Mar 8
First Quarter
Mar 16
Full

Hourly Weather History & Observations

Time (GMT) Temp. Dew Point Humidity Pressure Visibility Wind Dir Wind Speed Gust Speed Precip Events Conditions
12:00 AM 45 °F 44 °F 92% 29.73 in 5 mi South 17.3 mph - -   Mostly Cloudy
1:00 AM 45 °F 44 °F 95% 29.69 in 6 mi South 20.7 mph - -   Mostly Cloudy
2:00 AM 46 °F 45 °F 94% 29.65 in 5 mi South 21.9 mph - -   Mostly Cloudy
3:00 AM 46 °F 45 °F 96% 29.60 in 4 mi South 20.7 mph - -   Mostly Cloudy
4:00 AM 47 °F 46 °F 94% 29.57 in 6 mi South 19.6 mph - -   Mostly Cloudy
5:00 AM 47 °F 46 °F 96% 29.54 in 7 mi South 18.4 mph - -   Overcast
6:00 AM 48 °F 46 °F 92% 29.50 in 9 mi South 19.6 mph - -   Overcast
7:00 AM 48 °F 46 °F 92% 29.47 in 13 mi South 19.6 mph - -   Mostly Cloudy
8:00 AM 48 °F 47 °F 93% 29.45 in 14 mi South 20.7 mph - -   Scattered Clouds
9:00 AM 49 °F 47 °F 88% 29.44 in 17 mi South 20.7 mph - -   Mostly Cloudy
10:00 AM 49 °F 47 °F 90% 29.43 in 16 mi South 20.7 mph - -   Mostly Cloudy
11:00 AM 50 °F 48 °F 91% 29.42 in 10 mi SSW 20.7 mph - -   Mostly Cloudy
12:00 PM 51 °F 49 °F 91% 29.42 in 15 mi SSW 24.2 mph - -   Partly Cloudy
1:00 PM 53 °F 49 °F 84% 29.39 in 22 mi SSW 20.7 mph - -   Scattered Clouds
2:00 PM 54 °F 47 °F 68% 29.39 in 19 mi WSW 13.8 mph - -   Scattered Clouds
3:00 PM 54 °F 43 °F 57% 29.39 in 25 mi WSW 16.1 mph - -   Scattered Clouds
4:00 PM 53 °F 45 °F 66% 29.39 in 22 mi SW 17.3 mph - -   Partly Cloudy
5:00 PM 49 °F 42 °F 69% 29.40 in 19 mi WSW 15.0 mph - -   Scattered Clouds
6:00 PM 48 °F 41 °F 70% 29.42 in 22 mi WSW 15.0 mph - -   Mostly Cloudy
7:00 PM 47 °F 42 °F 77% 29.43 in 19 mi SW 13.8 mph - -   Mostly Cloudy
8:00 PM 46 °F 40 °F 72% 29.44 in 25 mi WSW 15.0 mph - -   Scattered Clouds
9:00 PM 43 °F 40 °F 84% 29.46 in 19 mi SW 10.4 mph - -  
10:00 PM 42 °F 38 °F 83% 29.47 in 16 mi SW 11.5 mph - -   Scattered Clouds
11:00 PM 40 °F 38 °F 88% 29.48 in 19 mi SW 9.2 mph - -